カタログに戻る

ECHOSTAR 19

運用中通信GEO
NORAD 41893·PAYLOAD·🇺🇸 United States

打ち上げ Dec 18, 2016 から Cape Canaveral Space Force Station

Loading…

TLE

最新Source: Space-Track

元期: Sep 14, 2026, 15:26 UTC

1 41893U 16079A   26257.64315978 -.00000146  00000-0  00000-0 0  9995
2 41893   0.0195 156.0480 0001431   7.8804 324.1329  1.00271992 35601

AllMySatでECHOSTAR 19をリアルタイム追跡

Download on the App Store